Powrót do katalogu

IRIDIUM 33 DEB

AktywnyPO
NORAD 38477·DEBRIS·🇺🇸 United States

Wystrzelony Sep 14, 1997 z Baikonur Cosmodrome

Loading…

Następne Przeloty (najbliższe 24 godziny)

TLE

ŚwieżeSource: Space-Track

Epoka: Sep 11, 2026, 18:07 UTC

1 38477U 97051AAE 26254.75514544  .00005217  00000-0  39214-2 0  9991
2 38477  86.4087   4.4541 0397997 164.7636 196.5931 13.62599120583939

Śledź IRIDIUM 33 DEB w czasie rzeczywistym z AllMySat

Download on the App Store